Flag for American Samoa Weather past 2 weeks in Pago Pago, American Samoa

Now
82 °F

Cloudy.


Feels Like: 87 °F
Forecast: 77 / 80 °F
Wind: 16 mph from Southeast

Location: Pago Pago / Int. Airp.

Current Time: Jul 29, 2015 at 1:05:21 PM

Latest Report: Jul 29, 2015 at 12:00 PM


Visibility: 12 mi

Pressure: 29.86 "Hg

Humidity: 71%

Dew point: 72 °F

Location of Pago PagoLocation

Historic Weather in Pago Pago — Graph

°F

Pago Pago temperature yesterday

Maximum temperature yesterday: 82 °F (at 11:50 AM)
Minimum temperature yesterday: 77 °F (at 6:00 AM)
Average temperature yesterday: 79 °F

Past Weeks' High & Low Weather Summary

 TemperatureHumidityPressure
High85 °F (Jul 19, 11:53 AM)94% (Jul 22, 7:55 AM)30.03 "Hg (Jul 22, 7:55 AM)
Low75 °F (Jul 22, 7:55 AM)60% (Jul 17, 12:51 PM)29.83 "Hg (Jul 28, 3:50 PM)
Average79 °F76%29.95 "Hg
* Reported Jul 14 11:00 AM — Jul 29 11:50 AM, Pago Pago, Weather by CustomWeather, © 2015

Note: Actual official high and low records may vary slightly from our data, if they occured in-between our weather recording intervals... More about our weather records

Advertising

Pago Pago weather history for previous 24 hours

 ConditionsComfort  
Time TempWeatherWind HumidityBarometerVisibility
11:50 AM
Wed, Jul 29
82 °FCloudy.16 mph71%29.86 "Hg12 mi
10:50 AM83 °FPartly sunny.17 mph73%29.87 "Hg12 mi
10:00 AM83 °FBroken clouds.17 mph70%29.88 "Hg12 mi
9:53 AM83 °FBroken clouds.17 mph70%29.88 "Hg12 mi
9:00 AM80 °FBroken clouds.16 mph76%29.88 "Hg12 mi
8:53 AM80 °FBroken clouds.16 mph76%29.88 "Hg12 mi
8:00 AM79 °FBroken clouds.18 mph76%29.85 "Hg12 mi
7:53 AM79 °FBroken clouds.18 mph76%29.85 "Hg12 mi
7:00 AM79 °FBroken clouds.18 mph77%29.85 "Hg12 mi
6:50 AM79 °FBroken clouds.18 mph77%29.85 "Hg12 mi
5:50 AM79 °FPartly cloudy.16 mph74%29.85 "Hg10 mi
4:50 AM78 °FPassing clouds.16 mph75%29.84 "Hg10 mi
4:00 AM78 °FPassing clouds.15 mph78%29.85 "Hg10 mi
3:50 AM78 °FPassing clouds.15 mph78%29.85 "Hg10 mi
2:56 AM78 °FPassing clouds.12 mph79%29.86 "Hg10 mi
1:52 AM79 °FPassing clouds.13 mph77%29.87 "Hg10 mi
12:50 AM78 °FPassing clouds.10 mph77%29.88 "Hg10 mi
11:50 PM
Tue, Jul 28
78 °FPassing clouds.12 mph77%29.89 "Hg10 mi
10:50 PM79 °FPartly cloudy.14 mph74%29.90 "Hg10 mi
10:00 PM78 °FPartly cloudy.15 mph73%29.90 "Hg10 mi
9:50 PM79 °FPartly cloudy.15 mph74%29.90 "Hg10 mi
9:00 PM78 °FPartly cloudy.14 mph72%29.89 "Hg10 mi
8:50 PM78 °FPartly cloudy.14 mph72%29.89 "Hg10 mi
8:00 PM79 °FPartly cloudy.14 mph70%29.88 "Hg10 mi
7:50 PM79 °FPartly cloudy.14 mph70%29.88 "Hg10 mi
7:00 PM79 °FPartly cloudy.15 mph70%29.86 "Hg12 mi
6:50 PM79 °FPartly cloudy.15 mph70%29.86 "Hg12 mi
5:50 PM79 °FBroken clouds.16 mph69%29.83 "Hg12 mi
4:00 PM80 °FBroken clouds.17 mph68%29.83 "Hg12 mi
3:50 PM80 °FBroken clouds.17 mph68%29.83 "Hg12 mi
3:00 PM81 °FBroken clouds.20 mph69%29.83 "Hg12 mi
2:50 PM81 °FBroken clouds.20 mph70%29.83 "Hg12 mi
1:51 PM81 °FBroken clouds.18 mph69%29.85 "Hg12 mi
1:00 PM81 °FBroken clouds.20 mph69%29.87 "Hg12 mi
Weather by CustomWeather, © 2015

See weather overviewHow to use our weather pages